Year,Month,Day,Hour,Minute,Value (Times are PST for temperature in C)
2013,08,06,09,16,20.80
2013,08,06,09,17,20.80
2013,08,06,09,18,20.90
2013,08,06,09,19,20.90
2013,08,06,09,20,21.00
2013,08,06,09,21,21.10
2013,08,06,09,22,21.10
2013,08,06,09,23,21.20
2013,08,06,09,24,21.20
2013,08,06,09,25,21.20
2013,08,06,09,26,21.20
2013,08,06,09,27,21.20
2013,08,06,09,28,21.30
2013,08,06,09,29,21.30
2013,08,06,09,30,21.40
2013,08,06,09,31,21.50
2013,08,06,09,32,21.60
2013,08,06,09,33,21.60
2013,08,06,09,34,21.70
2013,08,06,09,35,21.70
2013,08,06,09,36,21.70
2013,08,06,09,37,21.60
2013,08,06,09,38,21.70
2013,08,06,09,39,21.60
2013,08,06,09,40,21.60
2013,08,06,09,41,21.60
2013,08,06,09,42,21.60
2013,08,06,09,43,21.60
2013,08,06,09,44,21.60
2013,08,06,09,45,21.60
2013,08,06,09,46,21.50
2013,08,06,09,47,21.50
2013,08,06,09,48,21.50
2013,08,06,09,49,21.50
2013,08,06,09,50,21.50
2013,08,06,09,51,21.50
2013,08,06,09,52,21.50
2013,08,06,09,53,21.50
2013,08,06,09,54,21.50
2013,08,06,09,55,21.50
2013,08,06,09,56,21.40
2013,08,06,09,57,21.40
2013,08,06,09,58,21.30
2013,08,06,09,59,21.30
2013,08,06,10,00,21.30
2013,08,06,10,01,21.30
2013,08,06,10,02,21.40
2013,08,06,10,03,21.40
2013,08,06,10,04,21.40
2013,08,06,10,05,21.40
2013,08,06,10,06,21.40
2013,08,06,10,07,21.30
2013,08,06,10,08,21.30
2013,08,06,10,09,21.40
2013,08,06,10,10,21.30
2013,08,06,10,11,21.30
2013,08,06,10,12,21.30
2013,08,06,10,13,21.20
2013,08,06,10,14,21.20
2013,08,06,10,15,21.30
2013,08,06,10,16,21.20
2013,08,06,10,17,21.20
2013,08,06,10,18,21.20
2013,08,06,10,19,21.10
2013,08,06,10,20,21.10
2013,08,06,10,21,21.00
2013,08,06,10,22,20.90
2013,08,06,10,23,20.90
2013,08,06,10,24,20.90
2013,08,06,10,25,20.90
2013,08,06,10,26,21.00
2013,08,06,10,27,21.10
2013,08,06,10,28,21.20
2013,08,06,10,29,21.30
2013,08,06,10,30,21.40
2013,08,06,10,31,21.50
2013,08,06,10,32,21.50
2013,08,06,10,33,21.60
2013,08,06,10,34,21.60
2013,08,06,10,35,21.70
2013,08,06,10,36,21.70
2013,08,06,10,37,21.70
2013,08,06,10,38,21.70
2013,08,06,10,39,21.70
2013,08,06,10,40,21.80
2013,08,06,10,41,21.80
2013,08,06,10,42,21.80
2013,08,06,10,43,21.80
2013,08,06,10,44,21.80
2013,08,06,10,45,21.70
2013,08,06,10,46,21.70
2013,08,06,10,47,21.70
2013,08,06,10,48,21.70
2013,08,06,10,49,21.80
2013,08,06,10,50,21.80
2013,08,06,10,51,21.90
2013,08,06,10,52,21.90
2013,08,06,10,53,21.90
2013,08,06,10,54,21.90
2013,08,06,10,55,21.90
2013,08,06,10,56,22.00
2013,08,06,10,57,22.00
2013,08,06,10,58,22.10
2013,08,06,10,59,22.20
2013,08,06,11,00,22.20
2013,08,06,11,01,22.20
2013,08,06,11,02,22.10
2013,08,06,11,03,22.20
2013,08,06,11,04,22.20
2013,08,06,11,05,22.20
2013,08,06,11,06,22.30
2013,08,06,11,07,22.30
2013,08,06,11,08,22.30
2013,08,06,11,09,22.40
2013,08,06,11,10,22.40
2013,08,06,11,11,22.50
2013,08,06,11,12,22.50
2013,08,06,11,13,22.50
2013,08,06,11,14,22.60
2013,08,06,11,15,22.70
2013,08,06,11,16,22.70
2013,08,06,11,17,22.80
2013,08,06,11,18,22.80
2013,08,06,11,19,22.80
2013,08,06,11,20,22.80
2013,08,06,11,21,22.90
2013,08,06,11,22,22.90
2013,08,06,11,23,22.90
2013,08,06,11,24,22.90
2013,08,06,11,25,22.90
2013,08,06,11,26,22.90
2013,08,06,11,27,23.00
2013,08,06,11,28,23.00
2013,08,06,11,29,23.10
2013,08,06,11,30,23.10
2013,08,06,11,31,23.20
2013,08,06,11,32,23.20
2013,08,06,11,33,23.20
2013,08,06,11,34,23.20
2013,08,06,11,35,23.20
2013,08,06,11,36,23.20
2013,08,06,11,37,23.20
2013,08,06,11,38,23.10
2013,08,06,11,39,23.10
2013,08,06,11,40,23.10
2013,08,06,11,41,23.10
2013,08,06,11,42,23.00
2013,08,06,11,43,22.90
2013,08,06,11,44,22.80
2013,08,06,11,45,22.80
2013,08,06,11,46,22.70
2013,08,06,11,47,22.60
2013,08,06,11,48,22.60
2013,08,06,11,49,22.60
2013,08,06,11,50,22.60
2013,08,06,11,51,22.60
2013,08,06,11,52,22.70
2013,08,06,11,53,22.70
2013,08,06,11,54,22.70
2013,08,06,11,55,22.70
2013,08,06,11,56,22.70
2013,08,06,11,57,22.60
2013,08,06,11,58,22.50
2013,08,06,11,59,22.40
2013,08,06,12,00,22.40
2013,08,06,12,01,22.40
2013,08,06,12,02,22.40
2013,08,06,12,03,22.40
2013,08,06,12,04,22.50
2013,08,06,12,05,22.60
2013,08,06,12,06,22.60
2013,08,06,12,07,22.60
2013,08,06,12,08,22.70
2013,08,06,12,09,22.80
2013,08,06,12,10,22.90
2013,08,06,12,11,22.90
2013,08,06,12,12,22.90
2013,08,06,12,13,22.90
2013,08,06,12,14,22.90
2013,08,06,12,15,23.00
2013,08,06,12,16,23.00
2013,08,06,12,17,23.10
2013,08,06,12,18,23.20
2013,08,06,12,19,23.30
2013,08,06,12,20,23.40
2013,08,06,12,21,23.50
2013,08,06,12,22,23.60
2013,08,06,12,23,23.70
2013,08,06,12,24,23.70
2013,08,06,12,25,23.80
2013,08,06,12,26,23.90
2013,08,06,12,27,24.00
2013,08,06,12,28,24.10
2013,08,06,12,29,24.20
2013,08,06,12,30,24.20
2013,08,06,12,31,24.30
2013,08,06,12,32,24.40
2013,08,06,12,33,24.50
2013,08,06,12,34,24.60
2013,08,06,12,35,24.70
2013,08,06,12,36,24.70
2013,08,06,12,37,24.70
2013,08,06,12,38,24.70
2013,08,06,12,39,24.80
2013,08,06,12,40,24.80
2013,08,06,12,41,24.80
2013,08,06,12,42,24.80
2013,08,06,12,43,24.80
2013,08,06,12,44,24.80
2013,08,06,12,45,24.80
2013,08,06,12,46,24.80
2013,08,06,12,47,24.80
2013,08,06,12,48,24.80
2013,08,06,12,49,24.70
2013,08,06,12,50,24.60
2013,08,06,12,51,24.50
2013,08,06,12,52,24.40
2013,08,06,12,53,24.40
2013,08,06,12,54,24.40
2013,08,06,12,55,24.50
2013,08,06,12,56,24.50
2013,08,06,12,57,24.50
2013,08,06,12,58,24.50
2013,08,06,12,59,24.50
2013,08,06,13,00,24.60
2013,08,06,13,01,24.60
2013,08,06,13,02,24.70
2013,08,06,13,03,24.80
2013,08,06,13,04,24.80
2013,08,06,13,05,24.80
2013,08,06,13,06,24.80
2013,08,06,13,07,24.80
2013,08,06,13,08,24.70
2013,08,06,13,09,24.70
2013,08,06,13,10,24.70
2013,08,06,13,11,24.80
2013,08,06,13,12,24.90
2013,08,06,13,13,25.00
2013,08,06,13,14,25.10
2013,08,06,13,15,25.10
2013,08,06,13,16,25.10
2013,08,06,13,17,25.10
2013,08,06,13,18,25.10
2013,08,06,13,19,25.00
2013,08,06,13,20,25.00
2013,08,06,13,21,25.00
2013,08,06,13,22,24.90
2013,08,06,13,23,24.90
2013,08,06,13,24,24.90
2013,08,06,13,25,24.80
2013,08,06,13,26,24.70
2013,08,06,13,27,24.60
2013,08,06,13,28,24.50
2013,08,06,13,29,24.40
2013,08,06,13,30,24.40
2013,08,06,13,31,24.40
2013,08,06,13,32,24.40
2013,08,06,13,33,24.40
2013,08,06,13,34,24.50
2013,08,06,13,35,24.50
2013,08,06,13,36,24.60
2013,08,06,13,37,24.60
2013,08,06,13,38,24.60
2013,08,06,13,39,24.60
2013,08,06,13,40,24.40
2013,08,06,13,41,24.40
2013,08,06,13,42,24.40
2013,08,06,13,43,24.40
2013,08,06,13,44,24.50
2013,08,06,13,45,24.50
2013,08,06,13,46,24.60
2013,08,06,13,47,24.50
2013,08,06,13,48,24.50
2013,08,06,13,49,24.40
2013,08,06,13,50,24.40
2013,08,06,13,51,24.50
2013,08,06,13,52,24.60
2013,08,06,13,53,24.70
2013,08,06,13,54,24.80
2013,08,06,13,55,24.90
2013,08,06,13,56,25.00
2013,08,06,13,57,25.10
2013,08,06,13,58,25.10
2013,08,06,13,59,25.10
2013,08,06,14,00,25.00
2013,08,06,14,01,25.00
2013,08,06,14,02,24.90
2013,08,06,14,03,25.00
2013,08,06,14,04,25.00
2013,08,06,14,05,25.10
2013,08,06,14,06,25.20
2013,08,06,14,07,25.20
2013,08,06,14,08,25.30
2013,08,06,14,09,25.40
2013,08,06,14,10,25.50
2013,08,06,14,11,25.50
2013,08,06,14,12,25.50
2013,08,06,14,13,25.50
2013,08,06,14,14,25.50
2013,08,06,14,15,25.40
2013,08,06,14,16,25.40
2013,08,06,14,17,25.40
2013,08,06,14,18,25.40
2013,08,06,14,19,25.40
2013,08,06,14,20,25.40
2013,08,06,14,21,25.40
2013,08,06,14,22,25.50
2013,08,06,14,23,25.50
2013,08,06,14,24,25.40
2013,08,06,14,25,25.40
2013,08,06,14,26,25.40
2013,08,06,14,27,25.40
2013,08,06,14,28,25.40
2013,08,06,14,29,25.40
2013,08,06,14,30,25.40
2013,08,06,14,31,25.50
2013,08,06,14,32,25.50
2013,08,06,14,33,25.60
2013,08,06,14,34,25.70
2013,08,06,14,35,25.60
2013,08,06,14,36,25.60
2013,08,06,14,37,25.60
2013,08,06,14,38,25.60
2013,08,06,14,39,25.70
2013,08,06,14,40,25.70
2013,08,06,14,41,25.80
2013,08,06,14,42,25.80
2013,08,06,14,43,25.60
2013,08,06,14,44,25.60
2013,08,06,14,45,25.60
2013,08,06,14,46,25.60
2013,08,06,14,47,25.70
2013,08,06,14,48,25.70
2013,08,06,14,49,25.80
2013,08,06,14,50,25.80
2013,08,06,14,51,25.90
2013,08,06,14,52,25.90
2013,08,06,14,53,25.90
2013,08,06,14,54,25.90
2013,08,06,14,55,25.90
2013,08,06,14,56,25.80
2013,08,06,14,57,25.80
2013,08,06,14,58,25.80
2013,08,06,14,59,25.90
2013,08,06,15,00,25.90
2013,08,06,15,01,25.90
2013,08,06,15,02,25.90
2013,08,06,15,03,25.90
2013,08,06,15,04,26.00
2013,08,06,15,05,26.10
2013,08,06,15,06,26.10
2013,08,06,15,07,26.10
2013,08,06,15,08,26.20
2013,08,06,15,09,26.20
2013,08,06,15,10,26.20
2013,08,06,15,11,26.20
2013,08,06,15,12,26.10
2013,08,06,15,13,26.10
2013,08,06,15,14,26.10
2013,08,06,15,15,26.00
2013,08,06,15,16,26.00
2013,08,06,15,17,26.10
2013,08,06,15,18,26.00
2013,08,06,15,19,26.00
2013,08,06,15,20,26.00
2013,08,06,15,21,26.10
2013,08,06,15,22,26.20
2013,08,06,15,23,26.30
2013,08,06,15,24,26.30
2013,08,06,15,25,26.30
2013,08,06,15,26,26.40
2013,08,06,15,27,26.50
2013,08,06,15,28,26.60
2013,08,06,15,29,26.50
2013,08,06,15,30,26.50
2013,08,06,15,31,26.40
2013,08,06,15,32,26.30
2013,08,06,15,33,26.30
2013,08,06,15,34,26.20
2013,08,06,15,35,26.20
2013,08,06,15,36,26.30
2013,08,06,15,37,26.30
2013,08,06,15,38,26.30
2013,08,06,15,39,26.30
2013,08,06,15,40,26.30
2013,08,06,15,41,26.40
2013,08,06,15,42,26.40
2013,08,06,15,43,26.40
2013,08,06,15,44,26.30
2013,08,06,15,45,26.40
2013,08,06,15,46,26.30
2013,08,06,15,47,26.30
2013,08,06,15,48,26.30
2013,08,06,15,49,26.30
2013,08,06,15,50,26.30
2013,08,06,15,51,26.30
2013,08,06,15,52,26.40
2013,08,06,15,53,26.40
2013,08,06,15,54,26.40
2013,08,06,15,55,26.40
2013,08,06,15,56,26.40
2013,08,06,15,57,26.40
2013,08,06,15,58,26.40
2013,08,06,15,59,26.50
2013,08,06,16,00,26.60
2013,08,06,16,01,26.60
2013,08,06,16,02,26.60
2013,08,06,16,03,26.70
2013,08,06,16,04,26.80
2013,08,06,16,05,26.70
2013,08,06,16,06,26.70
2013,08,06,16,07,26.80
2013,08,06,16,08,26.80
2013,08,06,16,09,26.70
2013,08,06,16,10,26.70
2013,08,06,16,11,26.70
2013,08,06,16,12,26.70
2013,08,06,16,13,26.80
2013,08,06,16,14,26.80
2013,08,06,16,15,26.80
2013,08,06,16,16,26.80
2013,08,06,16,17,26.80
2013,08,06,16,18,26.80
2013,08,06,16,19,26.80
2013,08,06,16,20,26.60
2013,08,06,16,21,26.50
2013,08,06,16,22,26.50
2013,08,06,16,23,26.40
2013,08,06,16,24,26.30
2013,08,06,16,25,26.30
2013,08,06,16,26,26.30
2013,08,06,16,27,26.30
2013,08,06,16,28,26.40
2013,08,06,16,29,26.50
2013,08,06,16,30,26.50
2013,08,06,16,31,26.70
2013,08,06,16,32,26.70
2013,08,06,16,33,26.80
2013,08,06,16,34,26.80
2013,08,06,16,35,26.90
2013,08,06,16,36,27.00
2013,08,06,16,37,27.00
2013,08,06,16,38,27.00
2013,08,06,16,39,27.00
2013,08,06,16,40,27.00
2013,08,06,16,41,26.90
2013,08,06,16,42,26.90
2013,08,06,16,43,26.80
2013,08,06,16,44,26.80
2013,08,06,16,45,26.80
2013,08,06,16,46,26.80
2013,08,06,16,47,26.70
2013,08,06,16,48,26.60
2013,08,06,16,49,26.60
2013,08,06,16,50,26.60
2013,08,06,16,51,26.50
2013,08,06,16,52,26.50
2013,08,06,16,53,26.50
2013,08,06,16,54,26.50
2013,08,06,16,55,26.60
2013,08,06,16,56,26.60
2013,08,06,16,57,26.70
2013,08,06,16,58,26.80
2013,08,06,16,59,26.80
2013,08,06,17,00,26.90
2013,08,06,17,01,26.90
2013,08,06,17,02,26.90
2013,08,06,17,03,27.00
2013,08,06,17,04,27.10
2013,08,06,17,05,27.10
2013,08,06,17,06,27.10
2013,08,06,17,07,27.10
2013,08,06,17,08,27.10
2013,08,06,17,09,27.20
2013,08,06,17,10,27.20
2013,08,06,17,11,27.30
2013,08,06,17,12,27.40
2013,08,06,17,13,27.40
2013,08,06,17,14,27.40
2013,08,06,17,15,27.40
2013,08,06,17,16,27.40
2013,08,06,17,17,27.30
2013,08,06,17,18,27.30
2013,08,06,17,19,27.30
2013,08,06,17,20,27.30
2013,08,06,17,21,27.30
2013,08,06,17,22,27.30
2013,08,06,17,23,27.30
2013,08,06,17,24,27.20
2013,08,06,17,25,27.20
2013,08,06,17,26,27.20
2013,08,06,17,27,27.10
2013,08,06,17,28,27.10
2013,08,06,17,29,27.10
2013,08,06,17,30,27.10
2013,08,06,17,31,27.00
2013,08,06,17,32,27.00
2013,08,06,17,33,26.90
2013,08,06,17,34,26.90
2013,08,06,17,35,26.80
2013,08,06,17,36,26.70
2013,08,06,17,37,26.60
2013,08,06,17,38,26.50
2013,08,06,17,39,26.40
2013,08,06,17,40,26.40
2013,08,06,17,41,26.30
2013,08,06,17,42,26.30
2013,08,06,17,43,26.30
2013,08,06,17,44,26.30
2013,08,06,17,45,26.20
2013,08,06,17,46,26.10
2013,08,06,17,47,26.10
2013,08,06,17,48,26.10
2013,08,06,17,49,26.10
2013,08,06,17,50,26.10
2013,08,06,17,51,26.00
2013,08,06,17,52,26.00
2013,08,06,17,53,26.00
2013,08,06,17,54,26.00
2013,08,06,17,55,25.90
2013,08,06,17,56,25.90
2013,08,06,17,57,25.90
2013,08,06,17,58,25.90
2013,08,06,17,59,25.90
2013,08,06,18,00,25.90
2013,08,06,18,01,25.90
2013,08,06,18,02,25.90
2013,08,06,18,03,25.90
2013,08,06,18,04,25.80
2013,08,06,18,05,25.90
2013,08,06,18,06,25.90
2013,08,06,18,07,25.90
2013,08,06,18,08,25.90
2013,08,06,18,09,25.90
2013,08,06,18,10,25.90
2013,08,06,18,11,25.90
2013,08,06,18,12,25.90
2013,08,06,18,13,25.90
2013,08,06,18,14,25.80
2013,08,06,18,15,25.80
2013,08,06,18,16,25.70
2013,08,06,18,17,25.70
2013,08,06,18,18,25.60
2013,08,06,18,19,25.60
2013,08,06,18,20,25.60
2013,08,06,18,21,25.50
2013,08,06,18,22,25.50
2013,08,06,18,23,25.50
2013,08,06,18,24,25.40
2013,08,06,18,25,25.40
2013,08,06,18,26,25.40
2013,08,06,18,27,25.30
2013,08,06,18,28,25.30
2013,08,06,18,29,25.30
2013,08,06,18,30,25.30
2013,08,06,18,31,25.30
2013,08,06,18,32,25.30
2013,08,06,18,33,25.40
2013,08,06,18,34,25.40
2013,08,06,18,35,25.40
2013,08,06,18,36,25.50
2013,08,06,18,37,25.50
2013,08,06,18,38,25.50
2013,08,06,18,39,25.50
2013,08,06,18,40,25.60
2013,08,06,18,41,25.50
2013,08,06,18,42,25.50
2013,08,06,18,43,25.50
2013,08,06,18,44,25.40
2013,08,06,18,45,25.40
2013,08,06,18,46,25.40
2013,08,06,18,47,25.40
2013,08,06,18,48,25.40
2013,08,06,18,49,25.40
2013,08,06,18,50,25.40
2013,08,06,18,51,25.40
2013,08,06,18,52,25.40
2013,08,06,18,53,25.40
2013,08,06,18,54,25.40
2013,08,06,18,55,25.50
2013,08,06,18,56,25.50
2013,08,06,18,57,25.50
2013,08,06,18,58,25.60
2013,08,06,18,59,25.60
2013,08,06,19,00,25.60
2013,08,06,19,01,25.60
2013,08,06,19,02,25.60
2013,08,06,19,03,25.60
2013,08,06,19,04,25.60
2013,08,06,19,05,25.60
2013,08,06,19,06,25.60
2013,08,06,19,07,25.60
2013,08,06,19,08,25.60
